Showing default

KORSAT-3, 63630

Orbit data source: Space-Track

KORSAT-3, 63630 is a payload satellite owned by DAPA (KR) in LEO that was launched on Tue, 22 Apr 2025 UTC via an FALCON 9 launch vehicle from the Air Force Eastern Test Range (AFETR). Payload-class satellites include a variety of spacecraft equipped with specific instruments for various scientific and technological missions. These include communications satellites like Starlink; space stations such as the ISS; scientific satellites like the Hubble; Earth observation satellites from companies like Planet Labs, Umbra, and HawkEye 360; GPS; miniature CubeSats for education and research; and military/defense satellites.

Loading next visibility...
Identifier
63630, 2025-081A
Orbit
LEO
Country
Flag of UnknownUnknown / SKOR
Related business
Manufacturer
KAI
Mission
Operational Defense Radar Imaging
Bus & Motor
CAS500?, Unknown motor
Mass
~800 kg wet, ~750 kg dry
Launch date (UTC)
2025-04-22 (6 months ago)
Launch vehicle
FALCON 9
Launch site
Air Force Eastern Test Range (AFETR)
Object type
Payload
Rocket body
Debris
Shape & HBR
Hex Box + 3 Pan, 3.9 m
Radar Cross Section
10.467 m², Large (>1 m²)

Expand to show TLE details & history
Last TLE update: 15 hours ago

TLE from 15 hours ago
0 KORSAT-3
1 63630U 25081A   25287.14072592  .00007447  00000-0  62629-3 0  9998
2 63630  45.4101 171.6704 0009796 333.1159  26.9211 14.98810374 26269
Epoch: 2025-10-14T03:22Z
TLE epoch observation values (Epoch: 2025-10-14T03:22:38.719Z)
Latitude
0.00001°
Longitude
98.07566°
Altitude
564.547 km
Speed
7.584 km/s
True Right ascension
11h 26m 40s
True Declination
0° 00' 00"
Sunlit
Object was in daylight at epoch
Visualization orbit readout
Latitude
Unknown
Longitude
Unknown
Altitude
Unknown
Speed
Unknown
Apparent Right ascension
Unknown
Apparent Declination
Unknown
Sunlit
N/A
Visualization observer readout
Local Sidereal Time
13:10:48
Azimuth
Unknown
Elevation
Unknown
Doppler factor
Unknown
Orbital elements
Apogee altitude
578.9 km
Perigee altitude
565.283 km
Semi-major axis
6,950.229 km
Eccentricity
0.00098
Inclination
45.4101°
RAAN
171.6704°
Arg. of periapsis
333.1159°
True anomaly
26.97198°
Mean anomaly
26.9211°
Eccentric anomaly
26.94653°
Mean motion
3.7458 °/min
Orbital period
96.11 mins
BSTAR
0.00062629
Loading maneuver chart data...
Computing Atmospheric mass density...
Loading historical data...
Loading historical data...
Loading historical data...
Loading historical data...
Loading historical data...
Loading historical data...
Loading historical data...
Other satellites on launch #81 in the year 2025 (2025-04-22 UTC)

Documentation

Showing up to 5 results
|